DOUGLAS Weather Reports


time (UTC)temp
C
wind
direction
speed
KPH
gust
KPH
rain 1hr
cm
rain 24hr
cm
rain mn
cm
humidity
%
barometer
mb
20260503212003 29 143 1.6 12.9 0.00 0.00 0.00 21
20260503211002 30 64 3.2 14.5 0.00 0.00 0.00 21
20260503210003 29 133 0.0 19.3 0.00 0.00 0.00 21
20260503205003 30 172 0.0 14.5 0.00 0.00 0.00 21
20260503204003 29 102 4.8 16.1 0.00 0.00 0.00 20
20260503203003 29 116 4.8 19.3 0.00 0.00 0.00 18
20260503202004 29 109 1.6 16.1 0.00 0.00 0.00 19
20260503201002 28 264 4.8 16.1 0.00 0.00 0.00 23
20260503200003 29 214 1.6 20.9 0.00 0.00 0.00 24
20260503194003 28 51 4.8 11.3 0.00 0.00 0.00 24
20260503193004 28 141 0.0 11.3 0.00 0.00 0.00 28
20260503192003 28 92 3.2 16.1 0.00 0.00 0.00 27
20260503191003 27 68 6.4 19.3 0.00 0.00 0.00 27
20260503190004 27 68 6.4 17.7 0.00 0.00 0.00 27
20260503185002 26 65 8.0 22.5 0.00 0.00 0.00 27
20260503184003 27 110 3.2 14.5 0.00 0.00 0.00 27
20260503183003 26 50 3.2 12.9 0.00 0.00 0.00 30
20260503182003 26 159 1.6 16.1 0.00 0.00 0.00 33
20260503181003 25 58 4.8 12.9 0.00 0.00 0.00 33
20260503180004 25 111 3.2 14.5 0.00 0.00 0.00 35
20260503175002 23 79 4.8 16.1 0.00 0.00 0.00 38
20260503174003 23 59 4.8 12.9 0.00 0.00 0.00 38
20260503173003 23 89 4.8 14.5 0.00 0.00 0.00 40
20260503172003 22 55 4.8 16.1 0.00 0.00 0.00 43
20260503171003 21 62 9.7 17.7 0.00 0.00 0.00 44
20260503151003 18 126 1.6 4.8 0.00 0.00 0.00 60
20260503131002 12 289 1.6 6.4 0.00 0.00 0.00 84
20260503081002 12 257 3.2 6.4 0.00 0.00 0.00 96
20260503072003 12 254 1.6 4.8 0.00 0.00 0.00 99
20260503071002 12 268 1.6 3.2 0.00 0.00 0.00 99
20260503055003 13 262 3.2 6.4 0.00 0.00 0.00 87
20260503054003 13 153 1.6 6.4 0.00 0.00 0.00 85
20260503053002 15 255 1.6 4.8 0.00 0.00 0.00 82
20260503051003 13 269 3.2 6.4 0.00 0.00 0.00 90
20260503050003 13 265 3.2 6.4 0.00 0.00 0.00 91
20260503045003 13 271 3.2 4.8 0.00 0.00 0.00 93
20260503044003 13 281 3.2 4.8 0.00 0.00 0.00 92
20260503043003 14 263 3.2 4.8 0.00 0.00 0.00 89
20260503042002 15 219 0.0 3.2 0.00 0.00 0.00 87
20260503041002 15 235 0.0 1.6 0.00 0.00 0.00 85
20260503040003 15 257 0.0 4.8 0.00 0.00 0.00 86
20260503035003 15 258 1.6 4.8 0.00 0.00 0.00 87
20260503034003 15 241 1.6 3.2 0.00 0.00 0.00 90
20260503033003 15 261 3.2 6.4 0.00 0.00 0.00 91
20260503032003 15 269 1.6 4.8 0.00 0.00 0.00 90
20260503031002 15 257 0.0 4.8 0.00 0.00 0.00 88
20260503030003 16 255 1.6 8.0 0.00 0.00 0.00 87
20260503025002 16 269 3.2 4.8 0.00 0.00 0.00 86
20260503024003 17 258 3.2 6.4 0.00 0.00 0.00 82
20260503023003 17 280 1.6 6.4 0.00 0.00 0.00 82
20260503022004 18 251 1.6 3.2 0.00 0.00 0.00 80
20260503021003 18 244 1.6 3.2 0.00 0.00 0.00 80
20260503020004 18 268 0.0 4.8 0.00 0.00 0.00 77
20260503015002 19 254 1.6 6.4 0.00 0.00 0.00 74
20260503014003 20 255 3.2 6.4 0.00 0.00 0.00 70
20260503013003 20 237 1.6 4.8 0.00 0.00 0.00 70
20260503012003 20 251 3.2 6.4 0.00 0.00 0.00 69
20260503011003 20 253 6.4 11.3 0.00 0.00 0.00 68
20260503010004 20 244 4.8 12.9 0.00 0.00 0.00 66
20260503005002 20 269 4.8 14.5 0.00 0.00 0.00 64
20260503004003 21 259 3.2 11.3 0.00 0.00 0.00 61
20260503003003 21 257 4.8 9.7 0.00 0.00 0.00 59
20260503002003 21 271 0.0 4.8 0.00 0.00 0.00 58
20260503001003 21 213 1.6 6.4 0.00 0.00 0.00 58
20260503000003 22 279 1.6 4.8 0.00 0.00 0.00 50
20260502235002 22 230 1.6 8.0 0.00 0.00 0.00 53
20260502234003 21 108 0.0 6.4 0.00 0.00 0.00 57
20260502233003 20 79 3.2 6.4 0.00 0.00 0.00 58
20260502232003 20 123 1.6 9.7 0.00 0.00 0.00 56
20260502231003 20 84 3.2 9.7 0.00 0.00 0.00 58
20260502230004 20 59 4.8 9.7 0.00 0.00 0.00 59
20260502225002 21 88 4.8 9.7 0.00 0.00 0.00 57
20260502224003 21 116 1.6 8.0 0.00 0.00 0.00 56
20260502223003 21 66 4.8 12.9 0.00 0.00 0.00 53
20260502222003 21 72 3.2 9.7 0.00 0.00 0.00 60
20260502221003 20 80 3.2 12.9 0.00 0.00 0.00 58
20260502220004 20 94 3.2 12.9 0.00 0.00 0.00 58
20260502215002 20 51 6.4 12.9 0.00 0.00 0.00 60
20260502214002 19 74 4.8 11.3 0.00 0.00 0.00 60
20260502213003 20 92 3.2 12.9 0.00 0.00 0.00 59